Tracking 20093 objects as of 16-Dec-2019
HD Live streaming from Space Station
objects crossing your sky now

FENGYUN 1C DEB

Track FENGYUN 1C DEB now!
10-day predictions


NORAD ID: 29885
Int'l Code: 1999-025GF
Perigee: 772.4 km
Apogee: 946.5 km
Inclination: 98.3 °
Period: 102.0 minutes
Semi major axis: 7230 km
RCS: 0.04 m2 (small)
Launch date: May 10, 1999
Source: People's Republic of China (PRC)
Launch site: Taiyaun Space Center, China (TSC)

Note: This is SATELLITE DEBRIS
aabbcc
Your satellite tracking list
Your tracking list is empty




NASA's NSSDC Master Catalog

Two Line Element Set (TLE):
1 29885U 99025GF  19349.67469177  .00000014  00000-0  27598-4 0  9990
2 29885  98.3404  57.4473 0120362 352.8976 158.9979 14.12064066665652
Source of the keplerian elements: AFSPC